Powrót do katalogu

STARLINK-34349

AktywnyŁącznośćVLEO
NORAD 64215·PAYLOAD·🇺🇸 United States

Wystrzelony May 31, 2025 z Vandenberg Space Force Base

Loading…

Następne Przeloty (najbliższe 24 godziny)

TLE

ŚwieżeSource: CelesTrak SupGP

Epoka: Sep 15, 2026, 04:01 UTC

1 64215C 25117N   26258.16784722 -.00047273  00000+0 -13968-2 0  2585
2 64215  53.1578 236.3699 0001573  86.4670 132.9532 15.34412073    10

Śledź STARLINK-34349 w czasie rzeczywistym z AllMySat

Download on the App Store